Voltar ao catálogo

STARLINK-3969

AtivoComunicaçõesVLEO
NORAD 52551·PAYLOAD·🇺🇸 United States

Lançado May 13, 2022 de Vandenberg Space Force Base

Loading…

Próximas Passagens (próximas 24 horas)

TLE

AtualizadoSource: CelesTrak SupGP

Época: Sep 15, 2026, 01:46 UTC

1 52551C 22051U   26258.07409722  .00039238  00000+0  11909-2 0  2586
2 52551  53.1596 347.1864 0000745  76.2805 349.5557 15.33522776    16

Acompanhe STARLINK-3969 em tempo real com AllMySat

Download on the App Store